owner,sensor,date,latitude,longitude,vertical_datum,direction_of_sea_water_velocity,sea_water_speed,upward_sea_water_velocity,qcFlag 
TABS,ioos:station:wmo:42048:1,2009-09-01T00:00:00Z,27.9396,-96.8429,2.0,64.37806397,5.43438129,-99999.0,'11133222,11111222,99999999' 
TABS,ioos:station:wmo:42048:1,2009-09-01T00:30:00Z,27.9396,-96.8429,2.0,63.01130395,5.442738281,-99999.0,'11133222,11111222,99999999' 
TABS,ioos:station:wmo:42048:1,2009-09-01T01:00:00Z,27.9396,-96.8429,2.0,51.11769964,6.83421539,-99999.0,'11133222,11111222,99999999' 
TABS,ioos:station:wmo:42048:1,2009-09-01T01:30:00Z,27.9396,-96.8429,2.0,62.33932617,6.548404386,-99999.0,'11133222,11111222,99999999' 
TABS,ioos:station:wmo:42048:1,2009-09-01T02:00:00Z,27.9396,-96.8429,2.0,104.5741821,6.199483849,-99999.0,'11133222,11111222,99999999' 
TABS,ioos:station:wmo:42048:1,2009-09-01T02:30:00Z,27.9396,-96.8429,2.0,154.844627566,1.99964996937,-99999.0,'1111122,1111122,1199999999' 
TABS,ioos:station:wmo:42048:1,2009-09-01T03:30:00Z,27.9396,-96.8429,2.0,125.9523439,2.248288238,-99999.0,'11133222,11111222,99999999' 
TABS,ioos:station:wmo:42048:1,2009-09-01T04:00:00Z,27.9396,-96.8429,2.0,156.6658028,4.998849868,-99999.0,'11133222,11111222,99999999' 
TABS,ioos:station:wmo:42048:1,2009-09-01T04:30:00Z,27.9396,-96.8429,2.0,172.7365618,4.113003769,-99999.0,'11133222,11111222,99999999' 
TABS,ioos:station:wmo:42048:1,2009-09-01T05:00:00Z,27.9396,-96.8429,2.0,199.6176231,2.144481289,-99999.0,'11133222,11111222,99999999' 
TABS,ioos:station:wmo:42048:1,2009-09-01T05:30:00Z,27.9396,-96.8429,2.0,172.9175318,3.32537216,-99999.0,'11133222,11111222,99999999' 
TABS,ioos:station:wmo:42048:1,2009-09-01T06:00:00Z,27.9396,-96.8429,2.0,182.4692306,3.713448532,-99999.0,'11133222,11111222,99999999' 
TABS,ioos:station:wmo:42048:1,2009-09-01T06:30:00Z,27.9396,-96.8429,2.0,184.5844417,4.253610231,-99999.0,'11133222,11111222,99999999' 
TABS,ioos:station:wmo:42048:1,2009-09-01T07:00:00Z,27.9396,-96.8429,2.0,205.6833767,2.907232361,-99999.0,'11133222,11111222,99999999' 
TABS,ioos:station:wmo:42048:1,2009-09-01T07:30:00Z,27.9396,-96.8429,2.0,183.7672642,6.544142419,-99999.0,'11133222,11111222,99999999' 
TABS,ioos:station:wmo:42048:1,2009-09-01T08:00:00Z,27.9396,-96.8429,2.0,189.213674,5.308493195,-99999.0,'11133222,11111222,99999999' 
TABS,ioos:station:wmo:42048:1,2009-09-01T08:30:00Z,27.9396,-96.8429,2.0,201.0577801,6.011464048,-99999.0,'11133222,11111222,99999999' 
TABS,ioos:station:wmo:42048:1,2009-09-01T09:00:00Z,27.9396,-96.8429,2.0,179.7833083,7.940056675,-99999.0,'11133222,11111222,99999999' 
TABS,ioos:station:wmo:42048:1,2009-09-01T09:30:00Z,27.9396,-96.8429,2.0,193.4502643,6.405700586,-99999.0,'11133222,11111222,99999999' 
TABS,ioos:station:wmo:42048:1,2009-09-01T10:00:00Z,27.9396,-96.8429,2.0,216.5069751,4.740094936,-99999.0,'11133222,11111222,99999999' 
TABS,ioos:station:wmo:42048:1,2009-09-01T10:30:00Z,27.9396,-96.8429,2.0,208.5716216,8.300903565,-99999.0,'11133222,11111222,99999999' 
TABS,ioos:station:wmo:42048:1,2009-09-01T11:00:00Z,27.9396,-96.8429,2.0,228.3137713,6.360455958,-99999.0,'11133222,11111222,99999999' 
TABS,ioos:station:wmo:42048:1,2009-09-01T11:30:00Z,27.9396,-96.8429,2.0,201.8979311,5.496589852,-99999.0,'11133222,11111222,99999999' 
TABS,ioos:station:wmo:42048:1,2009-09-01T12:00:00Z,27.9396,-96.8429,2.0,218.5607857,7.251158528,-99999.0,'11133222,11111222,99999999' 
TABS,ioos:station:wmo:42048:1,2009-09-01T12:30:00Z,27.9396,-96.8429,2.0,208.0053418,6.048239413,-99999.0,'11133222,11111222,99999999' 
TABS,ioos:station:wmo:42048:1,2009-09-01T13:00:00Z,27.9396,-96.8429,2.0,204.9246707,8.28131632,-99999.0,'11133222,11111222,99999999' 
TABS,ioos:station:wmo:42048:1,2009-09-01T13:30:00Z,27.9396,-96.8429,2.0,215.9473076,8.449094626,-99999.0,'11133222,11111222,99999999' 
TABS,ioos:station:wmo:42048:1,2009-09-01T14:00:00Z,27.9396,-96.8429,2.0,201.4207225,7.830945026,-99999.0,'11133222,11111222,99999999' 
TABS,ioos:station:wmo:42048:1,2009-09-01T14:30:00Z,27.9396,-96.8429,2.0,220.3087477,7.868170054,-99999.0,'11133222,11111222,99999999' 
TABS,ioos:station:wmo:42048:1,2009-09-01T15:00:00Z,27.9396,-96.8429,2.0,218.8065267,8.5208685,-99999.0,'11133222,11111222,99999999' 
TABS,ioos:station:wmo:42048:1,2009-09-01T15:30:00Z,27.9396,-96.8429,2.0,224.8518249,10.9601916,-99999.0,'11111222,11111222,99999999' 
TABS,ioos:station:wmo:42048:1,2009-09-01T16:00:00Z,27.9396,-96.8429,2.0,212.1150369,10.49611833,-99999.0,'11111222,11111222,99999999' 
TABS,ioos:station:wmo:42048:1,2009-09-01T16:30:00Z,27.9396,-96.8429,2.0,225.2264469,10.71982276,-99999.0,'11111222,11111222,99999999' 
TABS,ioos:station:wmo:42048:1,2009-09-01T17:00:00Z,27.9396,-96.8429,2.0,225.7743213,13.07559941,-99999.0,'11111222,11111222,99999999' 
TABS,ioos:station:wmo:42048:1,2009-09-01T17:30:00Z,27.9396,-96.8429,2.0,238.8001724,13.33927284,-99999.0,'11111222,11111222,99999999' 
TABS,ioos:station:wmo:42048:1,2009-09-01T18:00:00Z,27.9396,-96.8429,2.0,245.085867,14.43310431,-99999.0,'11111222,11111222,99999999' 
TABS,ioos:station:wmo:42048:1,2009-09-01T18:30:00Z,27.9396,-96.8429,2.0,240.5082862,14.01606221,-99999.0,'11111222,11111222,99999999' 
TABS,ioos:station:wmo:42048:1,2009-09-01T19:00:00Z,27.9396,-96.8429,2.0,244.8458839,14.16307876,-99999.0,'11111222,11111222,99999999' 
TABS,ioos:station:wmo:42048:1,2009-09-01T19:30:00Z,27.9396,-96.8429,2.0,242.3619608,14.57277256,-99999.0,'11111222,11111222,99999999' 
TABS,ioos:station:wmo:42048:1,2009-09-01T20:00:00Z,27.9396,-96.8429,2.0,236.4002479,17.52854814,-99999.0,'11111222,11111222,99999999' 
TABS,ioos:station:wmo:42048:1,2009-09-01T20:30:00Z,27.9396,-96.8429,2.0,238.7210516,15.29275972,-99999.0,'11111222,11111222,99999999' 
TABS,ioos:station:wmo:42048:1,2009-09-01T21:00:00Z,27.9396,-96.8429,2.0,245.0390905,15.97178763,-99999.0,'11111222,11111222,99999999' 
TABS,ioos:station:wmo:42048:1,2009-09-01T21:30:00Z,27.9396,-96.8429,2.0,233.3442976,14.4221011,-99999.0,'11111222,11111222,99999999' 
TABS,ioos:station:wmo:42048:1,2009-09-01T22:00:00Z,27.9396,-96.8429,2.0,236.7555775,16.03409492,-99999.0,'11111222,11111222,99999999' 
TABS,ioos:station:wmo:42048:1,2009-09-01T22:30:00Z,27.9396,-96.8429,2.0,228.2434149,15.12095566,-99999.0,'11111222,11111222,99999999' 
TABS,ioos:station:wmo:42048:1,2009-09-01T23:00:00Z,27.9396,-96.8429,2.0,228.9313466,16.50027879,-99999.0,'11111222,11111222,99999999' 
TABS,ioos:station:wmo:42048:1,2009-09-01T23:30:00Z,27.9396,-96.8429,2.0,220.6857461,14.66451499,-99999.0,'11111222,11111222,99999999' 
TABS,ioos:station:wmo:42048:1,2009-09-02T00:00:00Z,27.9396,-96.8429,2.0,219.8469106,14.0930231,-99999.0,'11111222,11111222,99999999' 
TABS,ioos:station:wmo:42048:1,2009-09-02T00:30:00Z,27.9396,-96.8429,2.0,218.9000626,14.5071086,-99999.0,'11111222,11111222,99999999' 
TABS,ioos:station:wmo:42048:1,2009-09-02T01:00:00Z,27.9396,-96.8429,2.0,229.5432581,15.44224401,-99999.0,'11111222,11111222,99999999' 
TABS,ioos:station:wmo:42048:1,2009-09-02T01:30:00Z,27.9396,-96.8429,2.0,229.2212325,16.13753389,-99999.0,'11111222,11111222,99999999' 
TABS,ioos:station:wmo:42048:1,2009-09-02T02:00:00Z,27.9396,-96.8429,2.0,223.1400893,13.07421891,-99999.0,'11111222,11111222,99999999' 
TABS,ioos:station:wmo:42048:1,2009-09-02T02:30:00Z,27.9396,-96.8429,2.0,222.6891177,12.97889055,-99999.0,'11111222,11111222,99999999' 
TABS,ioos:station:wmo:42048:1,2009-09-02T03:00:00Z,27.9396,-96.8429,2.0,229.9895606,12.19431015,-99999.0,'11111222,11111222,99999999' 
TABS,ioos:station:wmo:42048:1,2009-09-02T03:30:00Z,27.9396,-96.8429,2.0,235.83458,15.72351742,-99999.0,'11111222,11111222,99999999' 
TABS,ioos:station:wmo:42048:1,2009-09-02T04:00:00Z,27.9396,-96.8429,2.0,228.9266201,11.46082458,-99999.0,'11111222,11111222,99999999' 
TABS,ioos:station:wmo:42048:1,2009-09-02T04:30:00Z,27.9396,-96.8429,2.0,234.715241,12.36073218,-99999.0,'11111222,11111222,99999999' 
TABS,ioos:station:wmo:42048:1,2009-09-02T05:00:00Z,27.9396,-96.8429,2.0,233.3011827,13.37005984,-99999.0,'11111222,11111222,99999999' 
TABS,ioos:station:wmo:42048:1,2009-09-02T05:30:00Z,27.9396,-96.8429,2.0,240.5276319,11.19922319,-99999.0,'11111222,11111222,99999999' 
TABS,ioos:station:wmo:42048:1,2009-09-02T06:00:00Z,27.9396,-96.8429,2.0,232.4247537,11.05283674,-99999.0,'11111222,11111222,99999999' 
TABS,ioos:station:wmo:42048:1,2009-09-02T06:30:00Z,27.9396,-96.8429,2.0,232.3099862,13.55938789,-99999.0,'11111222,11111222,99999999' 
TABS,ioos:station:wmo:42048:1,2009-09-02T07:00:00Z,27.9396,-96.8429,2.0,230.2695081,10.70133169,-99999.0,'11111222,11111222,99999999' 
TABS,ioos:station:wmo:42048:1,2009-09-02T07:30:00Z,27.9396,-96.8429,2.0,217.7980916,12.46563677,-99999.0,'11111222,11111222,99999999' 
TABS,ioos:station:wmo:42048:1,2009-09-02T08:00:00Z,27.9396,-96.8429,2.0,227.3053922,10.72134786,-99999.0,'11111222,11111222,99999999' 
TABS,ioos:station:wmo:42048:1,2009-09-02T08:30:00Z,27.9396,-96.8429,2.0,226.5168717,12.0179574,-99999.0,'11111222,11111222,99999999' 
TABS,ioos:station:wmo:42048:1,2009-09-02T09:00:00Z,27.9396,-96.8429,2.0,241.1672362,12.77347643,-99999.0,'11111222,11111222,99999999' 
TABS,ioos:station:wmo:42048:1,2009-09-02T09:30:00Z,27.9396,-96.8429,2.0,215.7637049,14.71474091,-99999.0,'11111222,11111222,99999999' 
TABS,ioos:station:wmo:42048:1,2009-09-02T10:00:00Z,27.9396,-96.8429,2.0,231.1663262,12.37526565,-99999.0,'11111222,11111222,99999999' 
TABS,ioos:station:wmo:42048:1,2009-09-02T10:30:00Z,27.9396,-96.8429,2.0,231.2654299,10.81972735,-99999.0,'11111222,11111222,99999999' 
TABS,ioos:station:wmo:42048:1,2009-09-02T11:00:00Z,27.9396,-96.8429,2.0,223.1833064,10.03888938,-99999.0,'11111222,11111222,99999999' 
TABS,ioos:station:wmo:42048:1,2009-09-02T11:30:00Z,27.9396,-96.8429,2.0,218.0971045,11.29659241,-99999.0,'11111222,11111222,99999999' 
TABS,ioos:station:wmo:42048:1,2009-09-02T12:00:00Z,27.9396,-96.8429,2.0,231.5081417,11.16647214,-99999.0,'11111222,11111222,99999999' 
TABS,ioos:station:wmo:42048:1,2009-09-02T12:30:00Z,27.9396,-96.8429,2.0,224.9648541,11.6319087,-99999.0,'11111222,11111222,99999999' 
TABS,ioos:station:wmo:42048:1,2009-09-02T13:00:00Z,27.9396,-96.8429,2.0,220.0333655,10.29168596,-99999.0,'11111222,11111222,99999999' 
TABS,ioos:station:wmo:42048:1,2009-09-02T13:30:00Z,27.9396,-96.8429,2.0,219.4467263,10.23034701,-99999.0,'11111222,11111222,99999999' 
TABS,ioos:station:wmo:42048:1,2009-09-02T14:00:00Z,27.9396,-96.8429,2.0,233.2336895,9.924016324,-99999.0,'11133222,11111222,99999999' 
TABS,ioos:station:wmo:42048:1,2009-09-02T14:30:00Z,27.9396,-96.8429,2.0,225.7346132,12.67946765,-99999.0,'11111222,11111222,99999999' 
TABS,ioos:station:wmo:42048:1,2009-09-02T15:00:00Z,27.9396,-96.8429,2.0,230.4687665,12.01896002,-99999.0,'11111222,11111222,99999999' 
TABS,ioos:station:wmo:42048:1,2009-09-02T15:30:00Z,27.9396,-96.8429,2.0,233.0412973,10.36201235,-99999.0,'11111222,11111222,99999999' 
TABS,ioos:station:wmo:42048:1,2009-09-02T16:00:00Z,27.9396,-96.8429,2.0,224.9996843,10.2813326,-99999.0,'11111222,11111222,99999999' 
TABS,ioos:station:wmo:42048:1,2009-09-02T16:30:00Z,27.9396,-96.8429,2.0,234.0002898,10.5312155,-99999.0,'11111222,11111222,99999999' 
TABS,ioos:station:wmo:42048:1,2009-09-02T17:00:00Z,27.9396,-96.8429,2.0,240.3365598,8.688642011,-99999.0,'11133222,11111222,99999999' 
TABS,ioos:station:wmo:42048:1,2009-09-02T17:30:00Z,27.9396,-96.8429,2.0,229.949945,10.81665383,-99999.0,'11111222,11111222,99999999' 
TABS,ioos:station:wmo:42048:1,2009-09-02T18:00:00Z,27.9396,-96.8429,2.0,242.5936946,11.57960707,-99999.0,'11111222,11111222,99999999' 
TABS,ioos:station:wmo:42048:1,2009-09-02T18:30:00Z,27.9396,-96.8429,2.0,237.4367898,9.587074632,-99999.0,'11133222,11111222,99999999' 
TABS,ioos:station:wmo:42048:1,2009-09-02T19:00:00Z,27.9396,-96.8429,2.0,237.2429204,8.002612074,-99999.0,'11133222,11111222,99999999' 
TABS,ioos:station:wmo:42048:1,2009-09-02T19:30:00Z,27.9396,-96.8429,2.0,234.7121179,9.05345238,-99999.0,'11133222,11111222,99999999' 
TABS,ioos:station:wmo:42048:1,2009-09-02T20:00:00Z,27.9396,-96.8429,2.0,230.2092948,9.656541824,-99999.0,'11133222,11111222,99999999' 
TABS,ioos:station:wmo:42048:1,2009-09-02T20:30:00Z,27.9396,-96.8429,2.0,231.9268862,8.383847565,-99999.0,'11133222,11111222,99999999' 
TABS,ioos:station:wmo:42048:1,2009-09-02T21:00:00Z,27.9396,-96.8429,2.0,276.2357675,5.43213586,-99999.0,'11133222,11111222,99999999' 
TABS,ioos:station:wmo:42048:1,2009-09-02T21:30:00Z,27.9396,-96.8429,2.0,272.8817439,7.559556865,-99999.0,'11133222,11111222,99999999' 
TABS,ioos:station:wmo:42048:1,2009-09-02T22:00:00Z,27.9396,-96.8429,2.0,273.7987073,4.830610727,-99999.0,'11133222,11111222,99999999' 
TABS,ioos:station:wmo:42048:1,2009-09-02T22:30:00Z,27.9396,-96.8429,2.0,280.5588532,7.476590132,-99999.0,'11133222,11111222,99999999' 
TABS,ioos:station:wmo:42048:1,2009-09-02T23:00:00Z,27.9396,-96.8429,2.0,294.1373671,6.333758758,-99999.0,'11133222,11111222,99999999' 
TABS,ioos:station:wmo:42048:1,2009-09-02T23:30:00Z,27.9396,-96.8429,2.0,283.9093788,4.36807738,-99999.0,'11133222,11111222,99999999' 
TABS,ioos:station:wmo:42048:1,2009-09-03T00:00:00Z,27.9396,-96.8429,2.0,269.4113488,4.870256667,-99999.0,'11133222,11111222,99999999' 
TABS,ioos:station:wmo:42048:1,2009-09-03T00:30:00Z,27.9396,-96.8429,2.0,279.8552468,6.719144291,-99999.0,'11133222,11111222,99999999' 
TABS,ioos:station:wmo:42048:1,2009-09-03T01:00:00Z,27.9396,-96.8429,2.0,270.2431976,4.720042373,-99999.0,'11133222,11111222,99999999' 
TABS,ioos:station:wmo:42048:1,2009-09-03T01:30:00Z,27.9396,-96.8429,2.0,261.2757082,5.867887184,-99999.0,'11133222,11111222,99999999' 
TABS,ioos:station:wmo:42048:1,2009-09-03T02:00:00Z,27.9396,-96.8429,2.0,267.4778253,3.86374171,-99999.0,'11133222,11111222,99999999' 
TABS,ioos:station:wmo:42048:1,2009-09-03T02:30:00Z,27.9396,-96.8429,2.0,279.7247705,5.032305635,-99999.0,'11133222,11111222,99999999' 
TABS,ioos:station:wmo:42048:1,2009-09-03T03:00:00Z,27.9396,-96.8429,2.0,243.8659167,3.564393357,-99999.0,'11133222,11111222,99999999' 
TABS,ioos:station:wmo:42048:1,2009-09-03T03:30:00Z,27.9396,-96.8429,2.0,255.3933863,6.58274259,-99999.0,'11133222,11111222,99999999' 
TABS,ioos:station:wmo:42048:1,2009-09-03T04:00:00Z,27.9396,-96.8429,2.0,218.6595074,2.497218453,-99999.0,'11133222,11111222,99999999' 
TABS,ioos:station:wmo:42048:1,2009-09-03T04:30:00Z,27.9396,-96.8429,2.0,240.3533263,4.326337943,-99999.0,'11133222,11111222,99999999' 
TABS,ioos:station:wmo:42048:1,2009-09-03T05:00:00Z,27.9396,-96.8429,2.0,241.4494737,6.067857942,-99999.0,'11133222,11111222,99999999' 
TABS,ioos:station:wmo:42048:1,2009-09-03T05:30:00Z,27.9396,-96.8429,2.0,246.1360339,2.941462221,-99999.0,'11133222,11111222,99999999' 
TABS,ioos:station:wmo:42048:1,2009-09-03T06:00:00Z,27.9396,-96.8429,2.0,210.1331601,4.023779318,-99999.0,'11133222,11111222,99999999' 
TABS,ioos:station:wmo:42048:1,2009-09-03T06:30:00Z,27.9396,-96.8429,2.0,192.7629731,3.711711196,-99999.0,'11133222,11111222,99999999' 
TABS,ioos:station:wmo:42048:1,2009-09-03T07:00:00Z,27.9396,-96.8429,2.0,216.4722465,6.056145639,-99999.0,'11133222,11111222,99999999' 
TABS,ioos:station:wmo:42048:1,2009-09-03T07:30:00Z,27.9396,-96.8429,2.0,246.2629992,4.894006539,-99999.0,'11133222,11111222,99999999' 
TABS,ioos:station:wmo:42048:1,2009-09-03T08:00:00Z,27.9396,-96.8429,2.0,209.6041711,5.060632372,-99999.0,'11133222,11111222,99999999' 
TABS,ioos:station:wmo:42048:1,2009-09-03T08:30:00Z,27.9396,-96.8429,2.0,173.3949695,1.912694435,-99999.0,'11133222,11111222,99999999' 
TABS,ioos:station:wmo:42048:1,2009-09-03T09:00:00Z,27.9396,-96.8429,2.0,203.6510476,4.486880877,-99999.0,'11133222,11111222,99999999' 
TABS,ioos:station:wmo:42048:1,2009-09-03T09:30:00Z,27.9396,-96.8429,2.0,192.8084242,5.773673008,-99999.0,'11133222,11111222,99999999' 
TABS,ioos:station:wmo:42048:1,2009-09-03T10:00:00Z,27.9396,-96.8429,2.0,216.2338239,4.68628851,-99999.0,'11133222,11111222,99999999' 
TABS,ioos:station:wmo:42048:1,2009-09-03T10:30:00Z,27.9396,-96.8429,2.0,231.6267282,3.431180555,-99999.0,'11133222,11111222,99999999' 
TABS,ioos:station:wmo:42048:1,2009-09-03T11:00:00Z,27.9396,-96.8429,2.0,202.5793093,3.281539273,-99999.0,'11133222,11111222,99999999' 
TABS,ioos:station:wmo:42048:1,2009-09-03T11:30:00Z,27.9396,-96.8429,2.0,184.0555294,4.100268284,-99999.0,'11133222,11111222,99999999' 
TABS,ioos:station:wmo:42048:1,2009-09-03T12:00:00Z,27.9396,-96.8429,2.0,228.0124648,3.228869771,-99999.0,'11133222,11111222,99999999' 
TABS,ioos:station:wmo:42048:1,2009-09-03T12:30:00Z,27.9396,-96.8429,2.0,197.7580065,3.213098193,-99999.0,'11133222,11111222,99999999' 
TABS,ioos:station:wmo:42048:1,2009-09-03T13:00:00Z,27.9396,-96.8429,2.0,184.9131253,5.721022636,-99999.0,'11133222,11111222,99999999' 
TABS,ioos:station:wmo:42048:1,2009-09-03T13:30:00Z,27.9396,-96.8429,2.0,228.4317142,5.079064875,-99999.0,'11133222,11111222,99999999' 
TABS,ioos:station:wmo:42048:1,2009-09-03T14:00:00Z,27.9396,-96.8429,2.0,223.4195155,2.051389773,-99999.0,'11133222,11111222,99999999' 
TABS,ioos:station:wmo:42048:1,2009-09-03T14:30:00Z,27.9396,-96.8429,2.0,191.8068254,3.616517662,-99999.0,'11133222,11111222,99999999' 
TABS,ioos:station:wmo:42048:1,2009-09-03T15:00:00Z,27.9396,-96.8429,2.0,224.5261774,4.27814212,-99999.0,'11133222,11111222,99999999' 
TABS,ioos:station:wmo:42048:1,2009-09-03T15:30:00Z,27.9396,-96.8429,2.0,230.7722556,5.202403291,-99999.0,'11133222,11111222,99999999' 
TABS,ioos:station:wmo:42048:1,2009-09-03T16:00:00Z,27.9396,-96.8429,2.0,233.2124453,2.772002886,-99999.0,'11133222,11111222,99999999' 
TABS,ioos:station:wmo:42048:1,2009-09-03T16:30:00Z,27.9396,-96.8429,2.0,199.8775072,4.646859154,-99999.0,'11133222,11111222,99999999' 
TABS,ioos:station:wmo:42048:1,2009-09-03T17:00:00Z,27.9396,-96.8429,2.0,233.4750913,3.982072325,-99999.0,'11133222,11111222,99999999' 
TABS,ioos:station:wmo:42048:1,2009-09-03T17:30:00Z,27.9396,-96.8429,2.0,227.0822447,3.891657744,-99999.0,'11133222,11111222,99999999' 
TABS,ioos:station:wmo:42048:1,2009-09-03T18:00:00Z,27.9396,-96.8429,2.0,211.4292817,3.79710416,-99999.0,'11133222,11111222,99999999' 
TABS,ioos:station:wmo:42048:1,2009-09-03T18:30:00Z,27.9396,-96.8429,2.0,218.2128046,4.607266001,-99999.0,'11133222,11111222,99999999' 
TABS,ioos:station:wmo:42048:1,2009-09-03T19:00:00Z,27.9396,-96.8429,2.0,224.3934038,5.346026562,-99999.0,'11133222,11111222,99999999' 
TABS,ioos:station:wmo:42048:1,2009-09-03T19:30:00Z,27.9396,-96.8429,2.0,239.4082848,5.541236324,-99999.0,'11133222,11111222,99999999' 
TABS,ioos:station:wmo:42048:1,2009-09-03T20:00:00Z,27.9396,-96.8429,2.0,225.8422066,4.808846015,-99999.0,'11133222,11111222,99999999' 
TABS,ioos:station:wmo:42048:1,2009-09-03T20:30:00Z,27.9396,-96.8429,2.0,224.5962005,4.016466108,-99999.0,'11133222,11111222,99999999' 
TABS,ioos:station:wmo:42048:1,2009-09-03T21:00:00Z,27.9396,-96.8429,2.0,227.1077747,4.613458572,-99999.0,'11133222,11111222,99999999' 
TABS,ioos:station:wmo:42048:1,2009-09-03T21:30:00Z,27.9396,-96.8429,2.0,225.4455558,7.269277818,-99999.0,'11133222,11111222,99999999' 
TABS,ioos:station:wmo:42048:1,2009-09-03T22:00:00Z,27.9396,-96.8429,2.0,229.6476441,5.235666147,-99999.0,'11133222,11111222,99999999' 
TABS,ioos:station:wmo:42048:1,2009-09-03T22:30:00Z,27.9396,-96.8429,2.0,261.1047314,4.979889557,-99999.0,'11133222,11111222,99999999' 
TABS,ioos:station:wmo:42048:1,2009-09-03T23:00:00Z,27.9396,-96.8429,2.0,327.4417754,6.039089335,-99999.0,'11133222,11111222,99999999' 
TABS,ioos:station:wmo:42048:1,2009-09-03T23:30:00Z,27.9396,-96.8429,2.0,303.1090532,7.927073861,-99999.0,'11133222,11111222,99999999' 
TABS,ioos:station:wmo:42048:1,2009-09-04T00:00:00Z,27.9396,-96.8429,2.0,296.4418394,6.220755581,-99999.0,'11133222,11111222,99999999' 
TABS,ioos:station:wmo:42048:1,2009-09-04T00:30:00Z,27.9396,-96.8429,2.0,299.476241,3.962953444,-99999.0,'11133222,11111222,99999999' 
TABS,ioos:station:wmo:42048:1,2009-09-04T01:00:00Z,27.9396,-96.8429,2.0,298.4003408,5.865978179,-99999.0,'11133222,11111222,99999999' 
TABS,ioos:station:wmo:42048:1,2009-09-04T01:30:00Z,27.9396,-96.8429,2.0,306.3606995,4.048160076,-99999.0,'11133222,11111222,99999999' 
TABS,ioos:station:wmo:42048:1,2009-09-04T02:00:00Z,27.9396,-96.8429,2.0,272.4544469,4.203855373,-99999.0,'11133222,11111222,99999999' 
TABS,ioos:station:wmo:42048:1,2009-09-04T02:30:00Z,27.9396,-96.8429,2.0,259.1180056,5.509056181,-99999.0,'11133222,11111222,99999999' 
TABS,ioos:station:wmo:42048:1,2009-09-04T03:00:00Z,27.9396,-96.8429,2.0,251.5646734,4.205829288,-99999.0,'11133222,11111222,99999999' 
TABS,ioos:station:wmo:42048:1,2009-09-04T03:30:00Z,27.9396,-96.8429,2.0,245.6203857,5.862763853,-99999.0,'11133222,11111222,99999999' 
TABS,ioos:station:wmo:42048:1,2009-09-04T04:00:00Z,27.9396,-96.8429,2.0,257.2331156,4.706346779,-99999.0,'11133222,11111222,99999999' 
TABS,ioos:station:wmo:42048:1,2009-09-04T04:30:00Z,27.9396,-96.8429,2.0,232.4914638,5.206323079,-99999.0,'11133222,11111222,99999999' 
TABS,ioos:station:wmo:42048:1,2009-09-04T05:00:00Z,27.9396,-96.8429,2.0,225.2291717,5.296272274,-99999.0,'11133222,11111222,99999999' 
TABS,ioos:station:wmo:42048:1,2009-09-04T05:30:00Z,27.9396,-96.8429,2.0,218.8996386,5.589508028,-99999.0,'11133222,11111222,99999999' 
TABS,ioos:station:wmo:42048:1,2009-09-04T06:00:00Z,27.9396,-96.8429,2.0,215.5043227,6.043715744,-99999.0,'11133222,11111222,99999999' 
TABS,ioos:station:wmo:42048:1,2009-09-04T06:30:00Z,27.9396,-96.8429,2.0,205.6803535,5.21513183,-99999.0,'11133222,11111222,99999999' 
TABS,ioos:station:wmo:42048:1,2009-09-04T07:00:00Z,27.9396,-96.8429,2.0,227.18548,4.63492179,-99999.0,'11133222,11111222,99999999' 
TABS,ioos:station:wmo:42048:1,2009-09-04T07:30:00Z,27.9396,-96.8429,2.0,210.3006661,3.706332419,-99999.0,'11133222,11111222,99999999' 
TABS,ioos:station:wmo:42048:1,2009-09-04T08:00:00Z,27.9396,-96.8429,2.0,218.1569269,4.451123454,-99999.0,'11133222,11111222,99999999' 
TABS,ioos:station:wmo:42048:1,2009-09-04T08:30:00Z,27.9396,-96.8429,2.0,213.0555351,5.261653732,-99999.0,'11133222,11111222,99999999' 
TABS,ioos:station:wmo:42048:1,2009-09-04T09:00:00Z,27.9396,-96.8429,2.0,213.4548238,4.734405982,-99999.0,'11133222,11111222,99999999' 
TABS,ioos:station:wmo:42048:1,2009-09-04T09:30:00Z,27.9396,-96.8429,2.0,182.0662617,5.823787427,-99999.0,'11133222,11111222,99999999' 
TABS,ioos:station:wmo:42048:1,2009-09-04T10:00:00Z,27.9396,-96.8429,2.0,209.8302266,5.809793456,-99999.0,'11133222,11111222,99999999' 
TABS,ioos:station:wmo:42048:1,2009-09-04T10:30:00Z,27.9396,-96.8429,2.0,217.8062311,4.404588517,-99999.0,'11133222,11111222,99999999' 
TABS,ioos:station:wmo:42048:1,2009-09-04T11:00:00Z,27.9396,-96.8429,2.0,214.0534783,6.553914861,-99999.0,'11133222,11111222,99999999' 
TABS,ioos:station:wmo:42048:1,2009-09-04T11:30:00Z,27.9396,-96.8429,2.0,210.2018759,6.838252701,-99999.0,'11133222,11111222,99999999' 
TABS,ioos:station:wmo:42048:1,2009-09-04T12:00:00Z,27.9396,-96.8429,2.0,199.9482957,8.500005882,-99999.0,'11133222,11111222,99999999' 
TABS,ioos:station:wmo:42048:1,2009-09-04T12:30:00Z,27.9396,-96.8429,2.0,214.9109768,8.71909399,-99999.0,'11133222,11111222,99999999' 
TABS,ioos:station:wmo:42048:1,2009-09-04T13:00:00Z,27.9396,-96.8429,2.0,220.6528953,7.183655059,-99999.0,'11133222,11111222,99999999' 
TABS,ioos:station:wmo:42048:1,2009-09-04T13:30:00Z,27.9396,-96.8429,2.0,213.8064224,6.811732526,-99999.0,'11133222,11111222,99999999' 
TABS,ioos:station:wmo:42048:1,2009-09-04T14:00:00Z,27.9396,-96.8429,2.0,211.6322641,7.493283659,-99999.0,'11133222,11111222,99999999' 
TABS,ioos:station:wmo:42048:1,2009-09-04T14:30:00Z,27.9396,-96.8429,2.0,219.3385943,8.960318075,-99999.0,'11133222,11111222,99999999' 
TABS,ioos:station:wmo:42048:1,2009-09-04T15:00:00Z,27.9396,-96.8429,2.0,206.0782031,10.53225997,-99999.0,'11111222,11111222,99999999' 
TABS,ioos:station:wmo:42048:1,2009-09-04T15:30:00Z,27.9396,-96.8429,2.0,217.6819674,8.604864903,-99999.0,'11133222,11111222,99999999' 
TABS,ioos:station:wmo:42048:1,2009-09-04T16:00:00Z,27.9396,-96.8429,2.0,217.0811098,9.752066448,-99999.0,'11133222,11111222,99999999' 
TABS,ioos:station:wmo:42048:1,2009-09-04T16:30:00Z,27.9396,-96.8429,2.0,221.775912,7.670104302,-99999.0,'11133222,11111222,99999999' 